Wind_Speed
5 6 7 7 6 6 6 5 5 6 6 6 6 6 7 6 6 6 7 7 7 8 7 7 7 8 8 9 9 9 9 10 11 12 13 12 11 11 11 11 10 10 9
5 6 6 7 7 6 6 6 7 6 6 6 6 7 7 7 8 7 8 8 9 9 8 8 8 7 8 8 9 9 9 10 10 12 13 12 12 12 12 12 11 10 10
7 6 7 7 6 7 7 7 7 8 7 7 7 7 7 8 8 8 8 9 9 10 9 9 8 8 8 9 10 10 10 11 11 11 12 13 13 13 13 12 12 11 12
8 8 7 7 7 6 7 7 7 7 8 8 8 8 8 8 9 8 8 9 10 10 9 9 9 9 9 9 10 11 10 11 11 12 12 13 13 13 13 13 13 13 13
8 8 7 7 7 7 7 7 7 8 8 9 9 9 9 9 9 9 9 10 10 10 10 10 9 10 10 10 11 11 11 12 12 12 12 12 13 13 13 14 15 15 15
9 8 8 7 8 8 7 7 8 8 8 9 9 9 9 9 9 9 9 9 11 11 11 11 11 11 11 11 11 12 12 11 12 13 13 13 13 14 14 14 15 16 15
9 9 9 9 9 9 9 8 8 8 8 9 9 9 9 8 8 9 9 9 10 11 12 12 12 12 11 11 12 12 12 12 12 13 13 14 14 15 15 15 15 16 17
10 10 10 10 9 9 9 9 9 9 9 8 9 9 8 8 8 8 9 10 10 11 11 12 12 13 13 13 13 13 13 12 13 14 14 15 15 15 15 16 16 17 17
11 10 11 11 11 10 11 11 10 10 9 9 9 9 9 9 9 9 10 10 10 11 11 13 13 13 13 13 14 13 14 14 14 15 15 16 16 17 16 16 17 17 18
11 11 11 11 11 12 12 12 11 11 11 10 10 10 10 10 10 10 10 11 11 12 12 13 13 13 14 14 14 14 15 15 16 16 16 16 16 17 17 18 18 19 19
12 12 11 11 11 12 12 12 11 12 12 11 11 11 11 11 11 11 11 12 12 12 13 13 14 14 15 15 15 15 16 17 17 17 17 17 17 18 19 19 19 20 20
13 13 12 12 12 12 12 12 11 11 12 12 12 11 12 12 12 12 12 12 13 13 14 15 15 15 15 16 16 16 17 18 18 18 18 18 19 19 20 20 20 20 20
14 14 13 13 13 13 12 12 12 12 12 12 12 12 12 13 13 13 13 13 13 14 14 15 16 16 16 16 17 17 18 19 19 20 20 20 20 20 21 21 22 22 22
15 15 15 15 14 14 13 13 13 13 13 13 14 14 14 14 15 15 15 15 15 15 16 16 16 16 16 16 17 18 19 20 20 21 21 21 21 22 22 22 22 22 22
15 15 16 16 16 16 15 15 15 15 15 15 15 15 16 16 17 17 17 16 17 17 17 17 17 17 17 17 18 19 20 20 21 22 23 23 23 23 23 21 21 22 22
16 16 16 16 17 17 18 17 17 17 18 17 17 17 17 17 18 19 19 18 18 19 19 18 17 18 18 19 19 20 20 21 22 23 24 23 23 23 22 22 23 23 23
17 17 17 17 17 18 18 19 19 19 19 19 19 19 19 19 19 19 20 19 20 19 19 19 19 18 19 19 19 20 20 21 22 23 24 24 23 23 23 24 24 24 25
18 18 18 18 18 18 19 20 21 21 20 20 20 21 21 21 20 20 21 21 21 21 21 20 19 19 20 20 20 21 21 22 23 23 23 23 24 24 25 25 26 26 26
19 19 19 19 19 18 19 20 20 21 21 21 21 22 22 22 22 22 22 22 22 23 22 22 21 21 21 22 22 22 22 22 22 22 22 23 24 25 26 27 27 27 27
20 20 20 20 20 20 20 20 20 20 21 21 21 22 22 22 23 23 23 23 22 23 22 22 23 22 21 21 22 22 21 22 22 22 23 24 25 25 26 26 26 27 27
22 21 21 22 21 21 20 20 20 20 21 21 21 22 22 22 22 22 22 22 22 22 22 23 23 23 22 22 23 23 23 23 23 23 24 25 25 26 26 27 27 27 28
23 22 22 23 23 22 22 21 21 21 21 21 22 22 23 22 23 23 23 23 23 23 23 24 24 23 23 23 24 24 24 24 24 24 25 25 25 26 27 27 27 28 28
24 24 23 22 22 22 22 21 21 21 21 21 22 22 23 23 23 24 24 24 24 25 25 24 25 25 24 23 24 24 24 25 25 25 25 25 25 26 27 28 29 29 29
24 24 23 23 22 22 22 22 22 22 21 21 21 22 23 23 24 24 25 25 25 26 26 27 26 25 25 25 25 25 25 25 25 25 26 26 26 27 27 28 29 29 29
25 25 24 24 23 23 22 22 22 23 23 23 23 24 25 25 25 26 27 27 27 27 27 26 26 26 26 26 26 26 26 26 26 26 27 27 27 28 29 29 30 31 31
26 25 25 24 24 23 23 23 23 24 24 24 24 25 26 26 26 26 27 27 27 27 26 26 26 26 26 26 25 26 26 27 27 27 28 28 29 29 29 30 31 31 31
Wind_Direction
290 286 284 280 277 274 277 281 274 265 262 256 254 254 251 252 251 244 231 226 224 225 227 227 228 233 238 240 234 227 220 220 223 226 229 232 238 243 249 250 253 255 259
294 290 284 278 274 275 281 279 272 266 268 265 258 255 254 255 252 251 241 234 231 231 233 236 236 238 240 239 228 221 219 225 233 233 232 235 238 244 249 250 250 254 260
301 299 290 283 285 283 281 277 272 268 270 270 266 262 258 258 261 257 246 243 238 236 236 239 241 242 240 240 236 232 232 233 238 240 241 241 241 244 247 249 251 257 262
304 298 295 290 290 286 284 280 277 274 270 271 274 271 265 264 265 256 248 245 245 239 237 242 246 246 245 240 237 240 242 241 243 243 243 242 243 246 250 249 255 258 265
303 297 293 290 292 291 287 283 283 279 278 275 277 277 272 267 264 259 250 245 245 245 243 241 246 246 246 242 240 242 243 245 246 247 246 246 248 252 253 254 256 260 265
301 294 289 293 294 290 286 286 283 280 279 278 278 280 275 267 265 261 254 248 244 245 244 246 246 244 248 247 248 248 245 247 249 252 250 249 254 254 255 257 260 260 263
303 298 297 293 296 288 283 282 281 281 280 278 277 278 276 269 268 263 259 254 250 251 249 250 245 243 247 251 254 252 252 254 256 258 255 255 257 258 258 260 261 262 264
303 298 294 291 290 289 283 282 285 282 280 279 279 280 271 264 267 265 262 261 258 257 257 252 247 250 254 254 257 254 253 256 258 260 260 258 258 259 261 264 267 267 266
300 300 296 291 286 284 284 279 278 282 278 281 283 277 273 268 270 267 265 262 262 262 261 256 253 256 257 256 257 257 254 255 258 261 262 260 260 261 261 263 267 267 267
295 296 296 293 288 285 284 281 277 277 277 279 279 276 270 267 268 269 268 263 261 262 263 261 257 259 260 262 261 256 253 255 258 262 263 264 264 261 261 265 266 266 266
292 292 291 291 292 288 283 278 278 274 276 277 278 277 270 266 267 268 269 266 262 261 263 263 262 263 263 262 259 257 256 257 259 260 262 262 264 264 263 265 266 268 266
287 289 289 289 289 289 285 283 282 278 277 276 275 275 272 269 267 266 268 270 269 267 266 263 264 265 262 264 260 259 259 261 261 262 262 263 264 264 264 265 267 267 267
283 284 286 286 286 285 284 284 285 283 281 280 276 273 272 272 270 267 268 270 271 272 269 265 265 264 265 264 261 259 260 261 262 263 265 265 266 266 265 265 265 265 266
282 281 282 283 283 282 280 279 280 280 280 279 277 275 274 272 272 271 268 269 269 270 272 269 268 266 264 262 263 263 263 263 263 263 265 265 266 268 267 265 264 265 266
281 280 281 280 280 280 278 277 278 279 279 280 279 277 276 274 273 273 271 271 269 271 272 269 268 267 263 262 263 264 263 263 264 264 264 265 267 268 267 264 264 265 266
280 281 281 280 279 278 277 277 276 276 277 279 280 279 278 277 275 272 271 272 273 274 272 267 265 266 264 263 263 265 265 266 267 266 266 266 267 266 264 263 263 264 266
279 281 281 281 280 279 278 278 278 278 278 278 279 277 277 277 277 275 274 274 273 274 271 266 267 268 266 264 265 266 269 270 267 266 266 266 265 263 262 262 262 263 264
279 280 280 281 280 279 278 278 279 278 278 278 277 276 276 276 276 276 275 275 273 271 270 268 268 267 267 266 267 268 270 271 270 271 269 267 266 264 263 264 263 264 265
276 278 279 280 280 279 280 280 281 280 278 278 277 276 275 275 276 276 276 276 272 269 269 269 268 268 268 269 269 270 270 270 271 272 272 270 268 267 266 265 265 265 266
275 277 278 278 280 280 280 280 281 281 279 278 278 276 275 276 276 276 276 275 274 271 268 268 268 267 268 270 271 270 272 272 272 271 271 271 271 272 271 270 269 268 268
275 276 277 278 278 280 280 279 279 280 279 278 278 278 277 277 277 277 276 276 274 273 270 269 270 269 269 270 272 272 273 275 274 272 272 272 272 273 273 271 269 269 269
276 277 278 278 277 278 278 279 280 280 280 279 278 278 278 278 278 276 276 276 274 273 273 272 272 271 270 270 271 272 273 273 273 273 272 272 273 273 271 270 269 269 269
276 277 278 280 279 278 276 276 278 279 281 282 279 279 279 278 277 277 276 274 273 273 273 271 272 271 270 270 270 271 272 273 272 273 273 272 273 274 273 272 270 270 269
275 276 276 278 278 276 276 275 276 277 279 281 281 281 280 280 279 278 276 275 274 274 274 272 271 270 269 268 269 270 271 272 272 273 274 274 275 276 275 274 273 272 271
272 273 274 275 276 275 275 276 275 276 278 279 280 280 280 281 280 279 277 275 275 275 275 275 273 271 270 269 269 269 271 272 273 274 274 276 276 276 276 275 274 273 273
270 270 271 273 274 274 274 274 274 276 277 277 278 279 281 281 281 280 279 278 276 275 274 273 273 273 272 271 271 272 273 274 275 274 274 275 276 277 277 277 275 275 275
Height
5879 5879 5878 5878 5877 5877 5877 5876 5876 5876 5875 5875 5875 5875 5875 5875 5875 5875 5875 5875 5875 5876 5876 5876 5877 5877 5877 5876 5875 5875 5875 5877 5879 5881 5882 5883 5884 5885 5885 5885 5886 5886 5885
5877 5877 5876 5876 5875 5875 5875 5875 5874 5874 5874 5874 5874 5874 5874 5873 5873 5874 5873 5873 5874 5874 5875 5875 5875 5875 5875 5875 5874 5874 5874 5876 5877 5879 5880 5881 5882 5882 5883 5883 5883 5884 5884
5876 5875 5875 5874 5874 5874 5873 5873 5873 5873 5872 5872 5872 5872 5872 5871 5871 5871 5871 5872 5872 5872 5873 5873 5873 5873 5873 5873 5873 5874 5874 5875 5876 5877 5878 5878 5879 5880 5881 5881 5881 5881 5881
5874 5874 5873 5873 5872 5872 5872 5871 5871 5870 5870 5870 5870 5869 5869 5869 5869 5869 5869 5870 5870 5870 5871 5871 5871 5871 5871 5872 5872 5872 5873 5873 5874 5875 5875 5876 5877 5877 5878 5878 5878 5879 5879
5872 5872 5871 5871 5870 5870 5870 5869 5869 5868 5868 5867 5867 5867 5867 5867 5867 5866 5867 5867 5868 5868 5868 5869 5869 5869 5869 5869 5870 5870 5871 5871 5872 5872 5873 5873 5874 5874 5875 5875 5875 5875 5875
5870 5869 5869 5868 5868 5868 5868 5867 5866 5866 5866 5865 5865 5865 5864 5864 5864 5864 5864 5865 5865 5865 5865 5866 5866 5867 5867 5867 5867 5868 5868 5868 5869 5869 5870 5870 5871 5871 5871 5871 5872 5872 5872
5868 5867 5867 5866 5866 5865 5865 5865 5864 5864 5863 5863 5863 5862 5862 5862 5862 5862 5862 5862 5862 5862 5862 5863 5863 5864 5864 5865 5865 5865 5865 5865 5866 5866 5866 5867 5867 5868 5868 5868 5868 5868 5868
5865 5865 5864 5864 5863 5863 5862 5862 5861 5861 5861 5861 5860 5860 5860 5860 5860 5860 5859 5859 5859 5860 5860 5860 5860 5861 5861 5862 5862 5862 5862 5862 5862 5863 5863 5863 5864 5864 5864 5864 5864 5864 5864
5863 5862 5862 5861 5861 5860 5860 5859 5859 5858 5858 5858 5857 5857 5857 5857 5857 5857 5857 5857 5857 5857 5857 5857 5858 5858 5857 5858 5858 5858 5859 5859 5859 5859 5859 5860 5860 5860 5860 5860 5860 5859 5859
5860 5859 5859 5858 5858 5857 5857 5856 5856 5856 5855 5855 5855 5854 5855 5854 5854 5854 5854 5854 5854 5854 5854 5854 5854 5854 5854 5854 5854 5855 5855 5855 5855 5855 5855 5855 5855 5855 5856 5856 5855 5855 5855
5857 5856 5855 5855 5854 5853 5853 5853 5853 5852 5852 5852 5851 5851 5851 5851 5851 5851 5851 5851 5851 5851 5850 5850 5850 5850 5850 5851 5851 5851 5851 5851 5851 5851 5851 5851 5851 5851 5851 5851 5850 5850 5850
5854 5853 5852 5851 5851 5850 5849 5849 5849 5849 5849 5848 5848 5848 5847 5847 5847 5847 5847 5847 5847 5847 5847 5846 5846 5846 5846 5846 5846 5846 5846 5847 5847 5847 5847 5846 5846 5846 5846 5845 5845 5845 5845
5850 5849 5849 5848 5847 5846 5846 5846 5845 5845 5845 5845 5844 5844 5844 5844 5844 5843 5843 5843 5843 5843 5842 5842 5842 5842 5842 5842 5842 5842 5842 5842 5842 5842 5841 5841 5841 5841 5840 5840 5840 5839 5839
5846 5846 5845 5844 5844 5843 5842 5842 5842 5842 5841 5841 5840 5840 5840 5840 5839 5839 5839 5839 5839 5839 5838 5838 5838 5838 5838 5837 5837 5837 5836 5836 5836 5836 5836 5836 5835 5835 5834 5834 5834 5834 5833
5842 5841 5841 5840 5840 5839 5838 5838 5838 5838 5837 5837 5836 5836 5835 5835 5835 5834 5834 5834 5834 5834 5834 5833 5833 5833 5833 5832 5832 5832 5831 5831 5830 5830 5830 5830 5829 5829 5828 5828 5828 5828 5827
5838 5837 5836 5836 5835 5834 5834 5834 5833 5833 5833 5832 5832 5831 5831 5830 5830 5829 5829 5829 5828 5828 5828 5828 5827 5827 5827 5827 5826 5826 5825 5825 5824 5824 5823 5823 5823 5822 5822 5822 5822 5821 5821
5833 5832 5831 5831 5830 5829 5829 5828 5828 5828 5827 5827 5826 5826 5826 5825 5824 5824 5823 5823 5823 5822 5822 5822 5822 5821 5821 5821 5820 5820 5819 5818 5817 5817 5816 5816 5815 5815 5815 5815 5815 5815 5815
5828 5827 5826 5825 5825 5824 5823 5823 5822 5822 5822 5821 5821 5820 5820 5819 5819 5818 5817 5817 5816 5816 5816 5816 5815 5815 5815 5814 5814 5814 5813 5812 5811 5810 5809 5809 5809 5808 5808 5808 5808 5808 5807
5821 5821 5821 5820 5819 5818 5818 5817 5816 5816 5815 5815 5814 5814 5813 5812 5812 5812 5811 5810 5809 5809 5809 5809 5809 5809 5808 5808 5807 5807 5806 5806 5805 5804 5803 5803 5802 5801 5801 5801 5800 5800 5800
5816 5815 5815 5814 5813 5812 5812 5811 5810 5809 5809 5809 5808 5807 5807 5806 5805 5805 5804 5804 5803 5802 5802 5802 5802 5802 5802 5801 5801 5800 5800 5799 5798 5798 5797 5796 5796 5795 5794 5794 5793 5793 5793
5810 5809 5809 5808 5807 5806 5806 5805 5804 5804 5803 5802 5801 5801 5800 5799 5798 5798 5797 5797 5796 5796 5795 5795 5795 5795 5795 5795 5794 5794 5793 5792 5792 5791 5790 5790 5789 5788 5787 5786 5786 5786 5785
5803 5803 5802 5801 5800 5800 5799 5799 5798 5797 5797 5796 5795 5794 5793 5792 5791 5790 5790 5790 5789 5789 5789 5788 5788 5787 5787 5787 5787 5787 5786 5786 5785 5785 5783 5782 5782 5781 5780 5779 5778 5778 5777
5796 5796 5795 5795 5794 5793 5793 5793 5792 5791 5790 5789 5788 5787 5786 5785 5784 5783 5783 5782 5782 5782 5782 5782 5781 5780 5780 5780 5780 5779 5779 5778 5777 5777 5776 5775 5774 5773 5772 5771 5770 5770 5769
5789 5789 5788 5788 5787 5787 5786 5785 5785 5785 5784 5783 5782 5781 5780 5779 5777 5776 5776 5775 5775 5774 5774 5774 5773 5773 5772 5772 5772 5772 5771 5770 5769 5769 5768 5767 5766 5765 5764 5763 5762 5761 5760
5781 5781 5781 5781 5781 5780 5779 5778 5778 5778 5777 5776 5775 5774 5773 5772 5770 5769 5768 5767 5767 5766 5766 5765 5765 5764 5764 5764 5763 5763 5763 5762 5762 5761 5760 5759 5758 5757 5756 5754 5753 5752 5751
5773 5773 5773 5774 5773 5773 5773 5772 5771 5771 5770 5769 5768 5767 5765 5764 5763 5761 5760 5759 5759 5758 5757 5756 5756 5756 5756 5755 5755 5755 5754 5754 5753 5753 5751 5750 5749 5748 5747 5746 5744 5743 5742